FW7112 Weather Reports


time (UTC)temp
C
wind
direction
speed
KPH
gust
KPH
rain 1hr
cm
rain 24hr
cm
rain mn
cm
humidity
%
barometer
mb
20260507130559 12 0 0.0 6.4 0.00 0.86 0.28 83 1011.9
20260507130109 12 0 1.6 11.3 0.00 0.86 0.28 79 1011.7
20260507125559 12 0 1.6 11.3 0.00 0.91 0.28 75 1011.6
20260507125058 12 0 0.0 4.8 0.00 0.91 0.28 81 1011.8
20260507124608 12 0 0.0 1.6 0.00 0.91 0.28 86 1011.8
20260507124059 12 75 0.0 4.8 0.00 0.91 0.28 84 1011.6
20260507123559 12 0 1.6 4.8 0.00 0.91 0.28 82 1011.6
20260507123058 12 96 0.0 3.2 0.00 0.91 0.28 79 1011.5
20260507122558 12 0 0.0 4.8 0.00 0.91 0.28 83 1011.6
20260507122100 12 0 0.0 4.8 0.00 0.91 0.28 83 1011.7
20260507121600 12 0 0.0 6.4 0.00 0.91 0.28 83 1011.6
20260507121101 12 0 0.0 6.4 0.00 0.91 0.28 86 1011.5
20260507120600 12 88 0.0 6.4 0.00 0.91 0.28 89 1011.6
20260507120057 12 0 0.0 6.4 0.00 0.91 0.28 87 1011.5
20260507115559 12 0 0.0 3.2 0.00 0.91 0.28 89 1011.7
20260507115100 12 63 0.0 1.6 0.00 0.91 0.28 90 1011.6
20260507114600 12 0 0.0 1.6 0.00 0.91 0.28 91 1011.5
20260507114059 12 0 0.0 0.0 0.00 0.91 0.28 91 1011.5
20260507113601 12 0 0.0 0.0 0.00 0.91 0.28 91 1011.1
20260507113059 12 0 0.0 0.0 0.00 0.91 0.28 92 1011.3
20260507112559 12 0 0.0 3.2 0.00 0.91 0.28 91 1011.3
20260507112057 12 0 0.0 3.2 0.00 0.91 0.28 92 1011.2
20260507111559 12 0 0.0 3.2 0.00 0.91 0.28 92 1011.2
20260507111058 12 0 0.0 3.2 0.00 0.91 0.28 92 1011.3
20260507110600 12 111 0.0 1.6 0.00 0.91 0.28 92 1011.3
20260507110056 12 0 0.0 1.6 0.00 0.91 0.28 93 1011.2
20260507105559 12 111 0.0 1.6 0.00 0.91 0.28 92 1011.2
20260507105059 12 0 0.0 0.0 0.00 0.91 0.28 92 1011.2
20260507104613 12 0 0.0 0.0 0.00 0.91 0.28 92 1011.1
20260507104059 12 0 0.0 0.0 0.00 0.91 0.28 92 1011.1
20260507103601 12 0 0.0 0.0 0.00 0.91 0.28 92 1011.0
20260507103118 12 0 0.0 0.0 0.00 0.91 0.28 92 1011.1
20260507102600 12 0 0.0 0.0 0.00 0.91 0.28 92 1011.0
20260507102100 12 0 0.0 0.0 0.00 0.91 0.28 92 1010.9
20260507101559 12 0 0.0 0.0 0.00 0.91 0.28 92 1011.0
20260507101059 12 0 0.0 0.0 0.00 0.91 0.28 92 1011.0
20260507100600 12 0 0.0 0.0 0.00 0.91 0.28 92 1011.0
20260507100059 12 0 0.0 1.6 0.00 0.91 0.28 92 1010.8
20260507095602 12 0 0.0 1.6 0.00 0.91 0.28 92 1010.7
20260507095059 12 0 0.0 0.0 0.00 0.91 0.28 92 1010.7
20260507094558 12 0 0.0 0.0 0.00 0.91 0.28 92 1010.9
20260507094059 12 0 0.0 0.0 0.00 0.91 0.28 92 1010.7
20260507093559 12 0 0.0 1.6 0.00 0.91 0.28 92 1010.8
20260507093101 12 0 0.0 1.6 0.00 0.91 0.28 92 1010.8
20260507092603 12 111 0.0 1.6 0.00 0.91 0.28 92 1010.8
20260507092059 12 0 0.0 1.6 0.00 0.91 0.28 92 1010.6
20260507091600 12 0 0.0 1.6 0.00 0.91 0.28 92 1010.2
20260507091059 12 0 0.0 1.6 0.00 0.91 0.28 92 1010.4
20260507090558 12 0 0.0 1.6 0.00 0.91 0.28 92 1010.6
20260507090059 12 0 0.0 0.0 0.00 0.91 0.28 92 1010.6
20260507085601 12 0 0.0 1.6 0.00 0.91 0.28 92 1010.5
20260507085101 12 0 0.0 1.6 0.00 0.91 0.28 92 1010.4
20260507084600 12 0 0.0 1.6 0.00 0.91 0.28 92 1010.5
20260507084100 12 0 0.0 1.6 0.00 0.91 0.28 91 1010.3
20260507083600 12 0 0.0 1.6 0.00 0.91 0.28 91 1010.1
20260507083100 12 0 0.0 3.2 0.00 0.91 0.28 91 1010.5
20260507082559 12 0 0.0 3.2 0.00 0.91 0.28 91 1010.4
20260507082101 12 0 1.6 3.2 0.00 0.91 0.28 91 1010.3
20260507081600 12 0 0.0 1.6 0.00 0.91 0.28 91 1010.4
20260507081059 12 0 0.0 3.2 0.00 0.91 0.28 91 1010.3
20260507080602 12 0 0.0 3.2 0.00 0.91 0.28 91 1010.0
20260507075559 12 111 0.0 3.2 0.00 0.91 0.28 91 1009.6
20260507075059 12 0 0.0 3.2 0.00 0.91 0.28 91 1009.9
20260507074601 12 0 0.0 3.2 0.00 0.91 0.28 91 1009.9
20260507074059 12 0 0.0 3.2 0.00 0.91 0.28 91 1010.0
20260507073559 12 0 0.0 3.2 0.00 0.91 0.28 91 1009.9
20260507073104 12 0 0.0 6.4 0.00 0.91 0.28 91 1009.7
20260507072559 12 110 0.0 6.4 0.00 0.91 0.28 90 1009.6
20260507072056 12 0 0.0 3.2 0.00 0.91 0.28 91 1009.6
20260507071558 12 0 0.0 3.2 0.00 0.91 0.28 90 1009.7
20260507071056 12 0 0.0 3.2 0.03 0.91 0.28 90 1009.6
20260507070557 12 0 0.0 4.8 0.03 0.91 0.28 89 1009.5
20260507065558 12 0 0.0 4.8 0.03 0.91 0.28 89 1009.7
20260507065058 12 139 0.0 4.8 0.03 0.91 0.28 89 1009.7
20260507064558 12 139 0.0 4.8 0.03 0.91 0.28 89 1009.5
20260507064059 12 140 0.0 4.8 0.03 0.91 0.28 90 1009.7
20260507063558 12 0 0.0 4.8 0.03 0.91 0.28 89 1009.5
20260507063058 13 140 0.0 6.4 0.03 0.91 0.28 89 1009.4
20260507062557 13 0 0.0 6.4 0.05 0.91 0.28 88 1009.7
20260507062100 13 133 0.0 4.8 0.05 0.91 0.28 90 1009.9
20260507061603 13 0 1.6 6.4 0.08 0.91 0.28 89 1009.7
20260507061059 13 337 1.6 11.3 0.05 0.89 0.25 88 1009.6
20260507060600 13 175 1.6 11.3 0.05 0.89 0.25 89 1009.2
20260507060103 13 0 1.6 11.3 0.08 0.89 0.25 89 1009.6
20260507055556 13 0 0.0 3.2 0.10 0.89 0.25 89 1009.3
20260507055058 13 140 0.0 8.0 0.10 0.89 0.25 89 1009.2
20260507054607 13 0 0.0 8.0 0.10 0.89 0.25 89 1009.2
20260507054058 13 0 0.0 4.8 0.13 0.89 0.25 89 1009.3
20260507053559 13 0 0.0 4.8 0.15 0.89 0.25 89 1009.9
20260507053059 13 231 0.0 3.2 0.15 0.89 0.25 89 1009.9
20260507052603 13 0 0.0 4.8 0.15 0.86 0.23 89 1009.6
20260507052058 14 0 0.0 4.8 0.18 0.86 0.23 89 1009.3
20260507051601 14 0 1.6 4.8 0.20 0.84 0.20 89 1009.3
20260507051056 14 159 1.6 4.8 0.20 0.84 0.20 89 1009.4
20260507050557 14 0 0.0 3.2 0.20 0.84 0.20 89 1009.8
20260507050059 14 0 0.0 6.4 0.18 0.81 0.18 89 1009.9
20260507045559 14 158 0.0 6.4 0.15 0.79 0.15 89 1009.6
20260507045058 14 0 0.0 4.8 0.15 0.79 0.15 89 1009.6
20260507044606 15 176 0.0 3.2 0.15 0.79 0.15 88 1009.4
20260507044056 15 0 0.0 3.2 0.13 0.76 0.13 88 1009.8
20260507043644 15 0 0.0 9.7 0.10 0.74 0.10 86 1010.0
20260507043105 15 0 1.6 9.7 0.10 0.74 0.10 85 1009.7
20260507042600 15 129 1.6 6.4 0.08 0.71 0.08 84 1009.8
20260507042059 16 0 0.0 4.8 0.05 0.69 0.05 83 1010.3
20260507041606 16 126 0.0 4.8 0.00 0.64 0.00 80 1009.5
20260507041059 16 124 0.0 9.7 0.00 0.64 0.00 78 1009.6
20260507040559 16 0 1.6 9.7 0.00 0.64 0.00 76 1009.7
20260507040058 16 148 1.6 8.0 0.00 0.64 0.00 75 1009.5
20260507035559 16 0 1.6 9.7 0.00 0.64 0.64 75 1009.4
20260507035101 17 156 3.2 9.7 0.00 0.64 0.64 73 1009.3
20260507034613 17 134 0.0 12.9 0.00 0.64 0.64 72 1009.2
20260507034100 17 138 3.2 12.9 0.00 0.64 0.64 72 1009.2
20260507033600 17 239 3.2 12.9 0.00 0.64 0.64 71 1009.4
20260507033101 17 313 1.6 8.0 0.00 0.64 0.64 74 1009.4
20260507032600 17 87 0.0 6.4 0.00 0.64 0.64 75 1009.3
20260507032059 17 103 0.0 6.4 0.00 0.64 0.64 76 1009.1
20260507031559 18 0 0.0 8.0 0.00 0.64 0.64 78 1008.9
20260507031101 18 202 0.0 9.7 0.00 0.64 0.64 77 1008.9
20260507030559 18 123 1.6 9.7 0.00 0.64 0.64 77 1008.7
20260507030104 18 128 0.0 8.0 0.00 0.64 0.64 78 1008.3
20260507025559 18 0 1.6 8.0 0.00 0.64 0.64 78 1008.6
20260507025059 18 330 0.0 8.0 0.00 0.64 0.64 81 1008.8
20260507024600 18 0 0.0 9.7 0.00 0.64 0.64 81 1008.9
20260507024059 18 143 1.6 9.7 0.00 0.64 0.64 83 1008.7
20260507023600 18 0 0.0 9.7 0.00 0.64 0.64 85 1008.6
20260507023100 18 0 0.0 3.2 0.00 0.64 0.64 88 1008.6
20260507022559 18 0 0.0 3.2 0.00 0.64 0.64 87 1008.5
20260507022100 18 0 0.0 4.8 0.00 0.64 0.64 88 1008.3
20260507021600 18 0 0.0 4.8 0.00 0.64 0.64 88 1008.1
20260507021100 18 314 0.0 3.2 0.00 0.64 0.64 89 1007.9
20260507020600 18 0 0.0 0.0 0.00 0.64 0.64 89 1007.9
20260507020104 18 0 0.0 0.0 0.00 0.64 0.64 88 1008.0
20260507015559 18 0 0.0 0.0 0.00 0.64 0.64 88 1008.5
20260507015059 18 0 0.0 0.0 0.00 0.64 0.64 88 1008.4
20260507014600 18 0 0.0 0.0 0.00 0.64 0.64 88 1008.2
20260507014101 18 0 0.0 0.0 0.00 0.64 0.64 87 1008.2
20260507013559 18 0 0.0 0.0 0.00 0.64 0.64 87 1008.2
20260507013102 18 0 0.0 0.0 0.00 0.64 0.64 87 1008.1
20260507012559 18 0 0.0 0.0 0.00 0.64 0.64 87 1008.1
20260507012059 18 0 0.0 0.0 0.00 0.64 0.64 87 1008.2
20260507011559 18 0 0.0 0.0 0.00 0.64 0.64 87 1008.3
20260507011100 18 0 0.0 0.0 0.00 0.64 0.64 87 1008.6
20260507010559 18 0 0.0 0.0 0.00 0.64 0.64 86 1008.5
20260507010059 18 0 0.0 0.0 0.00 0.64 0.64 86 1008.6
20260507005600 18 0 0.0 0.0 0.00 0.64 0.64 86 1008.5
20260507005059 18 0 0.0 0.0 0.00 0.64 0.64 85 1008.4
20260507004601 18 0 0.0 0.0 0.00 0.64 0.64 84 1008.3
20260507004100 18 0 0.0 0.0 0.00 0.64 0.64 84 1008.2
20260507003602 18 0 0.0 0.0 0.00 0.64 0.64 84 1008.3
20260507003100 18 0 0.0 0.0 0.00 0.64 0.64 84 1008.2
20260507002559 19 0 0.0 0.0 0.00 0.64 0.64 84 1008.1
20260507002059 19 0 0.0 1.6 0.00 0.64 0.64 83 1008.1
20260507001602 19 0 0.0 1.6 0.00 0.64 0.64 83 1008.2
20260507001059 19 342 0.0 1.6 0.00 0.64 0.64 82 1007.9
20260507000559 19 0 0.0 1.6 0.00 0.64 0.64 81 1007.9
20260507000059 20 0 0.0 1.6 0.00 0.64 0.64 81 1007.8
20260506235601 20 0 0.0 1.6 0.00 0.64 0.64 80 1007.8
20260506235059 20 0 0.0 1.6 0.00 0.64 0.64 80 1007.7
20260506234603 20 0 0.0 0.0 0.00 0.64 0.64 80 1007.7
20260506234100 20 0 0.0 1.6 0.00 0.64 0.64 79 1007.6
20260506233601 20 0 0.0 1.6 0.00 0.64 0.64 79 1007.5
20260506233102 20 343 0.0 1.6 0.00 0.64 0.64 79 1007.4
20260506232559 20 0 0.0 1.6 0.00 0.64 0.64 79 1007.5
20260506232059 20 0 0.0 3.2 0.00 0.64 0.64 78 1007.5
20260506231558 20 0 0.0 3.2 0.00 0.64 0.64 77 1007.4
20260506231100 20 0 0.0 3.2 0.00 0.64 0.64 77 1007.5
20260506230559 20 0 0.0 3.2 0.00 0.64 0.64 77 1007.4
20260506230059 20 0 0.0 3.2 0.00 0.64 0.64 77 1007.4
20260506225559 20 338 0.0 3.2 0.00 0.64 0.64 76 1007.4
20260506225100 20 0 0.0 3.2 0.00 0.64 0.64 77 1007.4
20260506224609 20 0 0.0 6.4 0.00 0.64 0.64 77 1007.3
20260506224058 20 0 0.0 6.4 0.00 0.64 0.64 77 1007.2
20260506223559 20 106 0.0 8.0 0.00 0.64 0.64 77 1007.2
20260506223103 20 360 0.0 8.0 0.00 0.64 0.64 77 1007.3
20260506222559 20 130 0.0 6.4 0.00 0.64 0.64 77 1007.3
20260506222100 20 130 1.6 6.4 0.00 0.64 0.64 77 1007.3
20260506221558 20 38 0.0 8.0 0.00 0.64 0.64 77 1007.4
20260506221100 20 5 1.6 8.0 0.00 0.64 0.64 77 1007.4
20260506220600 20 135 1.6 8.0 0.00 0.64 0.64 77 1007.4
20260506215559 20 318 1.6 14.5 0.00 0.64 0.64 76 1007.5
20260506215100 20 0 3.2 14.5 0.00 0.64 0.64 76 1007.4
20260506214610 20 0 1.6 4.8 0.00 0.64 0.64 78 1007.4
20260506214100 20 90 0.0 4.8 0.00 0.64 0.64 77 1007.4
20260506213601 20 136 1.6 6.4 0.00 0.64 0.64 77 1007.5
20260506213058 20 0 1.6 11.3 0.00 0.64 0.64 78 1007.5
20260506212559 20 138 4.8 11.3 0.00 0.64 0.64 76 1007.4
20260506212100 20 0 3.2 9.7 0.00 0.64 0.64 76 1007.4
20260506211559 20 341 3.2 16.1 0.00 0.64 0.64 75 1007.4
20260506211059 20 321 3.2 16.1 0.00 0.64 0.64 75 1007.4
20260506210559 20 329 3.2 16.1 0.00 0.64 0.64 76 1007.2
20260506210105 20 0 3.2 17.7 0.00 0.64 0.64 77 1007.1
20260506205559 20 175 4.8 17.7 0.00 0.64 0.64 77 1007.2
20260506205059 20 132 3.2 14.5 0.00 0.64 0.64 77 1007.1
20260506204628 20 124 3.2 14.5 0.00 0.64 0.64 78 1007.1
20260506204100 20 335 1.6 11.3 0.00 0.64 0.64 77 1007.3
20260506203558 20 325 3.2 11.3 0.00 0.64 0.64 77 1007.1
20260506203058 20 261 4.8 11.3 0.00 0.64 0.64 76 1007.0
20260506202559 20 344 1.6 14.5 0.00 0.64 0.64 77 1007.2
20260506202100 20 287 3.2 16.1 0.00 0.64 0.64 76 1007.0
20260506201601 20 339 3.2 16.1 0.00 0.64 0.64 77 1007.0
20260506201059 20 254 1.6 12.9 0.00 0.64 0.64 78 1007.0
20260506200600 20 129 3.2 11.3 0.00 0.64 0.64 79 1007.0
20260506200101 20 149 1.6 14.5 0.00 0.64 0.64 80 1007.2
20260506195559 20 138 4.8 16.1 0.00 0.64 0.64 79 1007.0
20260506195059 20 150 3.2 16.1 0.00 0.64 0.64 79 1007.2
20260506194606 19 131 4.8 14.5 0.00 0.64 0.64 79 1007.1
20260506194059 19 354 4.8 16.1 0.00 0.64 0.64 79 1007.2
20260506193558 19 151 4.8 16.1 0.00 0.64 0.64 79 1007.2
20260506193102 19 149 3.2 16.1 0.00 0.64 0.64 80 1007.4
20260506192558 19 137 4.8 14.5 0.00 0.64 0.64 79 1007.3
20260506192059 19 165 6.4 9.7 0.00 0.64 0.64 80 1007.2
20260506191559 19 154 3.2 14.5 0.00 0.64 0.64 80 1007.5
20260506191058 18 143 4.8 17.7 0.00 0.64 0.64 80 1007.4
20260506190600 18 149 3.2 17.7 0.00 0.64 0.64 80 1007.7
20260506190059 18 123 3.2 17.7 0.00 0.64 0.64 80 1007.9
20260506185559 18 29 3.2 16.1 0.00 0.64 0.64 80 1007.7
20260506185059 18 335 1.6 16.1 0.00 0.64 0.64 80 1007.8
20260506184603 18 356 3.2 11.3 0.00 0.64 0.64 80 1007.8
20260506184059 18 27 3.2 16.1 0.00 0.64 0.64 80 1007.9
20260506183559 18 129 3.2 16.1 0.00 0.64 0.64 80 1007.9
20260506183106 18 106 4.8 16.1 0.00 0.64 0.64 79 1007.7
20260506182558 18 118 3.2 14.5 0.00 0.64 0.64 81 1007.6
20260506182058 18 308 4.8 14.5 0.00 0.64 0.64 80 1007.7
20260506181605 18 225 1.6 16.1 0.00 0.64 0.64 79 1007.9
20260506181100 18 327 3.2 16.1 0.00 0.64 0.64 82 1007.9
20260506180600 18 129 6.4 16.1 0.00 0.64 0.64 81 1007.9
20260506180058 18 158 1.6 17.7 0.00 0.64 0.64 82 1007.9
20260506175559 18 46 3.2 17.7 0.00 0.64 0.64 80 1008.0
20260506175104 18 130 3.2 17.7 0.00 0.64 0.64 81 1008.1
20260506174557 18 134 4.8 20.9 0.00 0.64 0.64 81 1008.1
20260506174059 18 157 3.2 24.1 0.00 0.64 0.64 84 1008.2
20260506173559 18 321 6.4 24.1 0.00 0.64 0.64 81 1008.0
20260506173100 17 321 6.4 20.9 0.00 0.64 0.64 83 1008.2
20260506172557 17 9 6.4 20.9 0.00 0.64 0.64 83 1008.1
20260506172058 17 137 4.8 19.3 0.00 0.64 0.64 84 1008.2
20260506171603 17 148 4.8 14.5 0.00 0.64 0.64 84 1008.1
20260506171058 17 136 3.2 14.5 0.00 0.64 0.64 85 1008.2
20260506170600 17 0 4.8 19.3 0.00 0.64 0.64 85 1008.2
20260506165559 17 144 3.2 16.1 0.00 0.64 0.64 87 1008.5
20260506165057 17 323 3.2 16.1 0.00 0.64 0.64 87 1008.6
20260506164603 17 320 4.8 17.7 0.00 0.64 0.64 86 1008.6
20260506164100 17 127 6.4 17.7 0.00 0.64 0.64 88 1008.5
20260506163600 17 131 6.4 16.1 0.00 0.64 0.64 88 1008.6
20260506163106 17 143 4.8 16.1 0.00 0.64 0.64 90 1008.4
20260506162558 17 153 4.8 16.1 0.03 0.64 0.64 90 1008.4
20260506162100 16 17 4.8 11.3 0.03 0.64 0.64 90 1008.5
20260506161607 16 144 1.6 9.7 0.03 0.64 0.64 90 1008.7
20260506161101 16 135 3.2 9.7 0.03 0.64 0.64 90 1008.8
20260506160600 16 141 3.2 9.7 0.03 0.64 0.64 91 1008.7
20260506160100 16 133 3.2 11.3 0.05 0.64 0.64 91 1008.7
20260506155559 16 325 1.6 14.5 0.08 0.64 0.64 91 1008.7
20260506155059 16 152 4.8 16.1 0.08 0.64 0.64 91 1008.8
20260506154613 16 145 4.8 16.1 0.10 0.64 0.64 91 1009.0
20260506154100 16 144 3.2 16.1 0.10 0.64 0.64 91 1008.9
20260506153559 16 133 4.8 11.3 0.15 0.64 0.64 91 1008.8
20260506153059 16 121 3.2 8.0 0.18 0.64 0.64 91 1009.1
20260506152557 16 159 1.6 8.0 0.15 0.61 0.61 92 1009.0
20260506152100 16 139 3.2 8.0 0.15 0.61 0.61 92 1008.9
20260506151558 16 133 3.2 6.4 0.18 0.61 0.61 92 1008.8
20260506151100 16 141 1.6 4.8 0.18 0.61 0.61 92 1009.1
20260506150600 15 139 3.2 6.4 0.18 0.61 0.61 92 1009.2
20260506150100 15 138 1.6 9.7 0.20 0.58 0.58 91 1009.3
20260506145601 15 125 1.6 9.7 0.18 0.56 0.56 91 1009.4
20260506145100 15 142 0.0 14.5 0.23 0.56 0.56 91 1009.6
20260506144604 15 321 1.6 14.5 0.25 0.53 0.53 91 1009.7
20260506144059 15 321 3.2 14.5 0.33 0.53 0.53 91 1009.6
20260506143600 15 326 1.6 6.4 0.30 0.48 0.48 91 1009.6
20260506143057 15 152 1.6 4.8 0.30 0.46 0.46 91 1009.6
20260506142600 15 152 0.0 4.8 0.30 0.46 0.46 91 1009.6
20260506142100 15 0 0.0 6.4 0.30 0.46 0.46 91 1009.7
20260506141605 15 0 0.0 6.4 0.33 0.43 0.43 91 1009.6
20260506141059 15 152 1.6 6.4 0.36 0.43 0.43 90 1009.5
20260506140602 15 341 1.6 4.8 0.38 0.43 0.43 91 1009.4
20260506140124 15 128 0.0 4.8 0.33 0.38 0.38 90 1009.5
20260506135602 15 0 0.0 6.4 0.33 0.38 0.38 91 1009.5
20260506135100 15 0 1.6 6.4 0.28 0.33 0.33 90 1009.4
20260506134600 15 58 0.0 3.2 0.23 0.28 0.28 90 1009.7
20260506134100 15 58 0.0 4.8 0.15 0.20 0.20 89 1009.7
20260506133600 16 58 1.6 4.8 0.13 0.18 0.18 89 1009.8
20260506133104 16 57 1.6 4.8 0.10 0.15 0.15 89 1009.8
20260506132559 16 52 0.0 4.8 0.10 0.15 0.15 88 1009.9
20260506132100 16 44 1.6 4.8 0.10 0.15 0.15 88 1010.0
20260506131558 16 2 0.0 4.8 0.08 0.10 0.10 87 1010.0
20260506131059 16 346 0.0 4.8 0.05 0.08 0.08 85 1009.9